Regional Weather Roundup
Issued by NWS Cleveland, OH

Home | Current Version | Previous Version | Graphics & Text | Print | Product List | Glossary On
Versions: 1 2 3 4 5 6 7 8 9 10 11 12 13 14 15 16 17 18 19 20 21 22 23 24 25 26 27 28 29 30 31 32 33 34 35 36 37 38 39 40 41 42 43 44 45 46 47 48 49 50
871
ASUS41 KCLE 011802
RWRCLE
OHIO REGIONAL WEATHER ROUNDUP
NATIONAL WEATHER SERVICE CLEVELAND, OH
200 PM EDT SUN MAY 01 2016

NOTE: "FAIR" INDICATES FEW OR NO CLOUDS BELOW 12,000 FEET WITH NO
SIGNIFICANT WEATHER AND/OR OBSTRUCTIONS TO VISIBILITY.

OHZ001>008-015>018-024>027-034-035-043-044-011900-
   NORTHWEST OHIO

CITY           SKY/WX    TMP DP  RH WIND       PRES   REMARKS
DEFIANCE       CLOUDY    57  51  80 CALM      29.96F
FINDLAY        CLOUDY    64  55  72 CALM      29.93F
TOLEDO EXPRESS CLOUDY    54  51  90 NE6       29.96F
TOLEDO EXEC    CLOUDY    54  49  83 NE8       29.97F
LIMA           MOSUNNY   68  61  78 NW9       29.93S
$$

OHZ009>014-019>023-028>033-038-089-011900-
   NORTHEAST OHIO

CITY           SKY/WX    TMP DP  RH WIND       PRES   REMARKS
CLE-HOPKINS    CLOUDY    59  54  83 N12       29.97R
CLE-LAKEFRONT  CLOUDY    52  49  89 NW5       29.96R
CUY CO. ARPT   CLOUDY    55  54  94 NW8       29.96R FOG
LORAIN-ELYRIA  CLOUDY    58  52  80 N9        29.96R
ASHTABULA      CLOUDY    55  54  96 NW10      29.95S
AKRON-CANTON   PTSUNNY   70  58  65 NW8       29.93F
WOOSTER        MOSUNNY   69  58  67 W8        29.93F
MANSFIELD      PTSUNNY   67  60  78 NW12      29.94S
YOUNGSTOWN     PTSUNNY   70  58  65 SW9       29.91F
$$

OHZ042-051>053-060>062-070>072-077>081-011900-
  SOUTHWEST OHIO

CITY           SKY/WX    TMP DP  RH WIND       PRES   REMARKS
CINC-COVINGTON PTSUNNY   74  59  59 W6        29.93F
CINC-LUNKEN    PTSUNNY   74  62  66 VRB3      29.92S
HAMILTON       SUNNY     77  58  51 W6        29.93F
DAYTON         MOSUNNY   72  58  61 W7        29.94F
WRIGHT-PAT AFB SUNNY     74  59  58 SW8       29.92F
DAYTON GENERAL MOSUNNY   73  57  57 VRB5      29.92F
WILMINGTON     MOSUNNY   75  61  61 SW10      29.92F
$$

OHZ036-037-039>041-045>050-054>059-063>069-073>076-082>088-011900-
  CENTRAL AND SOUTHEAST OHIO

CITY           SKY/WX    TMP DP  RH WIND       PRES   REMARKS
COLUMBUS       PTSUNNY   70  59  68 SW9       29.92F
OSU AIRPORT    MOSUNNY   74  60  61 W6        29.92F
BOLTON FIELD   PTSUNNY   72  61  68 W5        29.94F
RICKENBACK AFB CLOUDY    69  62  77 NW3       29.93F
NEWARK         SUNNY     74  59  59 SW9       29.92F
MARION         HVY RAIN  67  61  81 NW7       29.93S
LANCASTER      PTSUNNY   72  60  66 S8        29.93F
ZANESVILLE     PTSUNNY   73  60  63 W6        29.93F
NEW PHILLY     MOSUNNY   71  58  63 VRB5      29.93F
$$




USA.gov is the U.S. government's official web portal to all federal, state and local government web resources and services.